Weather History for KPEQ - February, 2013

Change the Weather History Date:

Sunday, February 3, 2013

  Actual Average Record
Temperature  
Mean Temperature 49 °F -  
Max Temperature 66 °F 62 °F 85 °F (1953)
Min Temperature 32 °F 29 °F -4 °F (1985)
Degree Days  
Heating Degree Days 16    
Moisture  
Dew Point 30 °F    
Average Humidity 54    
Maximum Humidity 75    
Minimum Humidity 29    
Precipitation  
Precipitation 0.00 in - - ()
Sea Level Pressure  
Sea Level Pressure 30.14 in    
Wind  
Wind Speed 3 mph (ENE)    
Max Wind Speed 14 mph    
Max Gust Speed -    
Visibility 10 miles    
Events      
Averages and records for this station are not official NWS values.
T = Trace of Precipitation, MM = Missing Value Source: NWS Daily Summary

Daily Weather History Graph

Daily Weather History Graph

Search for Another Location

Airport or City:

Trip Planner

Search our weather history database for the weather conditions in past years. The results will help you decide how hot, cold, wet, or windy it might be!

Date:

Astronomy

Feb. 03, 2013 Rise Set
Actual Time 7:45 AM CST 6:31 PM CST
Civil Twilight 7:19 AM CST 6:56 PM CST
Nautical Twilight 6:50 AM CST 7:25 PM CST
Astronomical Twilight 6:22 AM CST 7:54 PM CST
Moon 1:14 AM CST (2/3) 12:12 PM CST (2/3)
Length of Visible Light 11h 36m
Length of Day
10h 46m
Waning Gibbous, 48% of the Moon is Illuminated
Feb 3
Waning Gibbous
Feb 10
New
Feb 17
First Quarter
Feb 25
Full
Mar 4
Last Quarter

Hourly Weather History & Observations

Time (CST) Temp. Windchill Dew Point Humidity Pressure Visibility Wind Dir Wind Speed Gust Speed Precip Events Conditions
12:15 AM 37.9 °F - 25.3 °F 60% 30.34 in 10.0 mi Calm Calm - N/A   Clear
12:35 AM 36.7 °F - 24.8 °F 62% 30.34 in 10.0 mi Calm Calm - N/A   Clear
12:55 AM 36.5 °F - 24.8 °F 63% 30.34 in 10.0 mi Calm Calm - N/A   Clear
1:15 AM 37.0 °F - 24.6 °F 61% 30.33 in 10.0 mi Calm Calm - N/A   Clear
1:35 AM 37.9 °F - 24.8 °F 59% 30.33 in 10.0 mi Calm Calm - N/A   Clear
1:55 AM 36.0 °F - 24.8 °F 64% 30.33 in 10.0 mi Calm Calm - N/A   Clear
2:15 AM 35.8 °F 33.0 °F 25.0 °F 65% 30.32 in 10.0 mi SSW 3.5 mph - N/A   Clear
2:35 AM 35.8 °F - 25.0 °F 65% 30.31 in 10.0 mi Calm Calm - N/A   Clear
2:55 AM 35.6 °F - 24.8 °F 65% 30.31 in 10.0 mi Calm Calm - N/A   Clear
3:15 AM 35.8 °F 31.9 °F 24.6 °F 64% 30.31 in 10.0 mi North 4.6 mph - N/A   Clear
3:35 AM 35.1 °F - 26.1 °F 70% 30.30 in 10.0 mi Calm Calm - N/A   Clear
3:55 AM 34.3 °F 29.2 °F 25.3 °F 70% 30.30 in 10.0 mi NNE 5.8 mph - N/A   Clear
4:15 AM 34.7 °F 29.6 °F 25.5 °F 69% 30.30 in 10.0 mi NE 5.8 mph - N/A   Clear
4:35 AM 34.2 °F 31.2 °F 25.5 °F 71% 30.29 in 10.0 mi NNE 3.5 mph - N/A   Clear
4:55 AM 35.1 °F 31.0 °F 25.3 °F 68% 30.29 in 10.0 mi NNE 4.6 mph - N/A   Clear
5:15 AM 34.7 °F 30.6 °F 24.8 °F 67% 30.28 in 10.0 mi NNE 4.6 mph - N/A   Clear
5:35 AM 34.7 °F 29.6 °F 25.2 °F 68% 30.28 in 10.0 mi NNE 5.8 mph - N/A   Clear
5:55 AM 34.9 °F 32.0 °F 24.8 °F 67% 30.29 in 10.0 mi North 3.5 mph - N/A   Clear
6:15 AM 35.1 °F 31.0 °F 24.8 °F 66% 30.28 in 10.0 mi NNE 4.6 mph - N/A   Clear
6:35 AM 33.1 °F 30.0 °F 24.1 °F 70% 30.27 in 10.0 mi NNE 3.5 mph - N/A   Clear
6:55 AM 33.3 °F 27.9 °F 24.4 °F 70% 30.27 in 10.0 mi NNE 5.8 mph - N/A   Clear
7:15 AM 33.1 °F 28.7 °F 24.8 °F 72% 30.27 in 10.0 mi NE 4.6 mph - N/A   Clear
7:35 AM 32.5 °F 27.1 °F 24.4 °F 72% 30.27 in 10.0 mi NE 5.8 mph - N/A   Clear
7:55 AM 32.5 °F 29.3 °F 24.8 °F 73% 30.27 in 10.0 mi ENE 3.5 mph - N/A   Clear
8:15 AM 33.1 °F - 25.2 °F 73% 30.28 in 10.0 mi Calm Calm - N/A   Clear
8:35 AM 32.9 °F - 25.7 °F 75% 30.28 in 10.0 mi Calm Calm - N/A   Clear
8:55 AM 34.7 °F - 25.5 °F 69% 30.28 in 10.0 mi Calm Calm - N/A   Clear
9:15 AM 36.3 °F - 26.2 °F 67% 30.28 in 10.0 mi Calm Calm - N/A   Clear
9:35 AM 38.3 °F - 26.6 °F 63% 30.27 in 10.0 mi Calm Calm - N/A   Clear
9:55 AM 39.9 °F 36.7 °F 27.7 °F 62% 30.26 in 10.0 mi NE 4.6 mph - N/A   Clear
10:15 AM 41.7 °F 39.8 °F 28.9 °F 61% 30.25 in 7.0 mi ENE 3.5 mph - N/A   Clear
10:35 AM 44.2 °F 42.7 °F 30.0 °F 57% 30.24 in 10.0 mi East 3.5 mph - N/A   Clear
10:55 AM 46.6 °F - 30.6 °F 54% 30.24 in 10.0 mi ESE 3.5 mph - N/A   Clear
11:15 AM 47.7 °F - 30.7 °F 52% 30.23 in 10.0 mi Calm Calm - N/A   Clear
11:35 AM 49.6 °F - 31.1 °F 49% 30.22 in 10.0 mi Calm Calm - N/A   Clear
11:55 AM 51.8 °F - 31.8 °F 47% 30.21 in 10.0 mi Calm Calm - N/A   Clear
12:15 PM 52.5 °F - 31.8 °F 45% 30.19 in 10.0 mi Calm Calm - N/A   Clear
12:35 PM 56.3 °F - 32.0 °F 40% 30.17 in 10.0 mi SE 4.6 mph - N/A   Clear
12:55 PM 56.7 °F - 31.1 °F 38% 30.16 in 10.0 mi SSE 6.9 mph - N/A   Clear
1:15 PM 57.7 °F - 30.9 °F 36% 30.13 in 10.0 mi ESE 3.5 mph - N/A   Clear
1:35 PM 59.0 °F - 30.9 °F 35% 30.11 in 10.0 mi Calm Calm - N/A   Clear
1:55 PM 61.3 °F - 31.8 °F 33% 30.09 in 10.0 mi ESE 4.6 mph - N/A   Clear
2:15 PM 62.4 °F - 32.0 °F 32% 30.07 in 10.0 mi East 4.6 mph - N/A   Clear
2:35 PM 63.0 °F - 31.8 °F 31% 30.04 in 10.0 mi East 8.1 mph - N/A   Clear
2:55 PM 63.7 °F - 32.5 °F 31% 30.03 in 10.0 mi ENE 9.2 mph - N/A   Clear
3:15 PM 64.0 °F - 33.3 °F 32% 30.02 in 10.0 mi East 9.2 mph - N/A   Clear
3:35 PM 64.4 °F - 33.3 °F 31% 30.01 in 10.0 mi ENE 6.9 mph - N/A   Clear
3:55 PM 65.3 °F - 32.7 °F 30% 30.00 in 10.0 mi East 6.9 mph - N/A   Clear
4:15 PM 66.2 °F - 33.3 °F 29% 30.00 in 10.0 mi ENE 4.6 mph - N/A   Clear
4:35 PM 66.2 °F - 32.9 °F 29% 29.99 in 10.0 mi ENE 6.9 mph - N/A   Clear
4:55 PM 65.7 °F - 33.4 °F 30% 29.98 in 10.0 mi East 9.2 mph - N/A   Clear
5:15 PM 65.1 °F - 32.9 °F 30% 29.97 in 7.0 mi ENE 13.8 mph - N/A   Clear
5:55 PM 63.3 °F - 32.9 °F 32% 29.95 in 10.0 mi East 8.1 mph - N/A   Clear
6:15 PM 62.1 °F - 34.0 °F 35% 29.95 in 10.0 mi NE 6.9 mph - N/A   Clear
6:35 PM 61.0 °F - 36.5 °F 40% 29.95 in 10.0 mi East 9.2 mph - N/A   Clear
6:55 PM 59.7 °F - 37.6 °F 44% 29.95 in 10.0 mi East 9.2 mph - N/A   Clear
7:15 PM 58.5 °F - 37.9 °F 46% 29.94 in 10.0 mi East 9.2 mph - N/A   Scattered Clouds
7:35 PM 57.2 °F - 37.9 °F 49% 29.95 in 10.0 mi ESE 9.2 mph - N/A   Scattered Clouds
7:55 PM 56.3 °F - 38.3 °F 51% 29.95 in 10.0 mi Calm Calm - N/A   Clear
8:15 PM 55.2 °F - 37.9 °F 52% 29.95 in 10.0 mi ESE 4.6 mph - N/A   Clear
8:35 PM 53.8 °F - 37.6 °F 54% 29.95 in 10.0 mi East 5.8 mph - N/A   Mostly Cloudy
8:55 PM 53.2 °F - 36.5 °F 53% 29.94 in 10.0 mi East 5.8 mph - N/A   Overcast
9:15 PM 52.7 °F - 35.8 °F 53% 29.95 in 10.0 mi SE 3.5 mph - N/A   Mostly Cloudy
9:35 PM 51.3 °F - 36.0 °F 56% 29.95 in 10.0 mi South 3.5 mph - N/A   Scattered Clouds
9:55 PM 50.9 °F - 37.4 °F 60% 29.95 in 10.0 mi SW 5.8 mph - N/A   Overcast
10:15 PM 51.3 °F - 38.3 °F 61% 29.95 in 10.0 mi WSW 4.6 mph - N/A   Mostly Cloudy
10:35 PM 50.9 °F - 37.9 °F 61% 29.95 in 10.0 mi West 3.5 mph - N/A   Overcast
10:55 PM 50.9 °F - 38.3 °F 62% 29.95 in 10.0 mi West 3.5 mph - N/A   Mostly Cloudy
11:15 PM 50.7 °F - 38.5 °F 63% 29.95 in 10.0 mi WNW 6.9 mph - N/A   Mostly Cloudy
11:35 PM 51.8 °F - 38.7 °F 61% 29.95 in 10.0 mi WNW 4.6 mph - N/A   Overcast
11:55 PM 50.9 °F - 38.5 °F 62% 29.95 in 10.0 mi West 4.6 mph - N/A   Overcast